Year,Month,Day,Hour,Minute,Value (Times are PST for temperature in C)
2017,01,14,00,00,-1.20
2017,01,14,00,01,-1.20
2017,01,14,00,02,-1.20
2017,01,14,00,03,-1.20
2017,01,14,00,04,-1.20
2017,01,14,00,05,-1.20
2017,01,14,00,06,-1.20
2017,01,14,00,07,-1.20
2017,01,14,00,08,-1.30
2017,01,14,00,09,-1.30
2017,01,14,00,10,-1.30
2017,01,14,00,11,-1.30
2017,01,14,00,12,-1.30
2017,01,14,00,13,-1.30
2017,01,14,00,14,-1.40
2017,01,14,00,15,-1.40
2017,01,14,00,16,-1.30
2017,01,14,00,17,-1.30
2017,01,14,00,18,-1.20
2017,01,14,00,19,-1.10
2017,01,14,00,20,-1.00
2017,01,14,00,21,-1.00
2017,01,14,00,22,-0.90
2017,01,14,00,23,-1.00
2017,01,14,00,24,-1.00
2017,01,14,00,25,-1.10
2017,01,14,00,26,-1.10
2017,01,14,00,27,-1.00
2017,01,14,00,28,-1.00
2017,01,14,00,29,-1.00
2017,01,14,00,30,-1.00
2017,01,14,00,31,-1.10
2017,01,14,00,32,-1.00
2017,01,14,00,33,-1.00
2017,01,14,00,34,-1.00
2017,01,14,00,35,-0.90
2017,01,14,00,36,-0.90
2017,01,14,00,37,-0.90
2017,01,14,00,38,-0.90
2017,01,14,00,39,-0.90
2017,01,14,00,40,-1.00
2017,01,14,00,41,-1.00
2017,01,14,00,42,-1.00
2017,01,14,00,43,-1.00
2017,01,14,00,44,-1.00
2017,01,14,00,45,-0.90
2017,01,14,00,46,-0.90
2017,01,14,00,47,-1.00
2017,01,14,00,48,-1.00
2017,01,14,00,49,-1.10
2017,01,14,00,50,-1.10
2017,01,14,00,51,-1.10
2017,01,14,00,52,-1.10
2017,01,14,00,53,-1.10
2017,01,14,00,54,-1.10
2017,01,14,00,55,-1.10
2017,01,14,00,56,-1.10
2017,01,14,00,57,-1.20
2017,01,14,00,58,-1.20
2017,01,14,00,59,-1.20
2017,01,14,01,00,-1.20
2017,01,14,01,01,-1.20
2017,01,14,01,02,-1.30
2017,01,14,01,03,-1.30
2017,01,14,01,04,-1.30
2017,01,14,01,05,-1.30
2017,01,14,01,06,-1.30
2017,01,14,01,07,-1.30
2017,01,14,01,08,-1.30
2017,01,14,01,09,-1.40
2017,01,14,01,10,-1.40
2017,01,14,01,11,-1.40
2017,01,14,01,12,-1.40
2017,01,14,01,13,-1.40
2017,01,14,01,14,-1.50
2017,01,14,01,15,-1.50
2017,01,14,01,16,-1.50
2017,01,14,01,17,-1.50
2017,01,14,01,18,-1.60
2017,01,14,01,19,-1.60
2017,01,14,01,20,-1.60
2017,01,14,01,21,-1.60
2017,01,14,01,22,-1.60
2017,01,14,01,23,-1.60
2017,01,14,01,24,-1.60
2017,01,14,01,25,-1.60
2017,01,14,01,26,-1.60
2017,01,14,01,27,-1.60
2017,01,14,01,28,-1.60
2017,01,14,01,29,-1.60
2017,01,14,01,30,-1.60
2017,01,14,01,31,-1.60
2017,01,14,01,32,-1.60
2017,01,14,01,33,-1.60
2017,01,14,01,34,-1.60
2017,01,14,01,35,-1.70
2017,01,14,01,36,-1.70
2017,01,14,01,37,-1.60
2017,01,14,01,38,-1.60
2017,01,14,01,39,-1.60
2017,01,14,01,40,-1.60
2017,01,14,01,41,-1.60
2017,01,14,01,42,-1.70
2017,01,14,01,43,-1.70
2017,01,14,01,44,-1.70
2017,01,14,01,45,-1.70
2017,01,14,01,46,-1.70
2017,01,14,01,47,-1.70
2017,01,14,01,48,-1.70
2017,01,14,01,49,-1.70
2017,01,14,01,50,-1.70
2017,01,14,01,51,-1.70
2017,01,14,01,52,-1.70
2017,01,14,01,53,-1.70
2017,01,14,01,54,-1.70
2017,01,14,01,55,-1.70
2017,01,14,01,56,-1.80
2017,01,14,01,57,-1.80
2017,01,14,01,58,-1.80
2017,01,14,01,59,-1.70
2017,01,14,02,00,-1.70
2017,01,14,02,01,-1.70
2017,01,14,02,02,-1.70
2017,01,14,02,03,-1.70
2017,01,14,02,04,-1.70
2017,01,14,02,05,-1.70
2017,01,14,02,06,-1.70
2017,01,14,02,07,-1.70
2017,01,14,02,08,-1.70
2017,01,14,02,09,-1.70
2017,01,14,02,10,-1.70
2017,01,14,02,11,-1.70
2017,01,14,02,12,-1.80
2017,01,14,02,13,-1.80
2017,01,14,02,14,-1.80
2017,01,14,02,15,-1.80
2017,01,14,02,16,-1.80
2017,01,14,02,17,-1.70
2017,01,14,02,18,-1.70
2017,01,14,02,19,-1.70
2017,01,14,02,20,-1.70
2017,01,14,02,21,-1.80
2017,01,14,02,22,-1.80
2017,01,14,02,23,-1.80
2017,01,14,02,24,-1.80
2017,01,14,02,25,-1.80
2017,01,14,02,26,-1.80
2017,01,14,02,27,-1.80
2017,01,14,02,28,-1.80
2017,01,14,02,29,-1.80
2017,01,14,02,30,-1.80
2017,01,14,02,31,-1.80
2017,01,14,02,32,-1.80
2017,01,14,02,33,-1.80
2017,01,14,02,34,-1.80
2017,01,14,02,35,-1.70
2017,01,14,02,36,-1.70
2017,01,14,02,37,-1.70
2017,01,14,02,38,-1.70
2017,01,14,02,39,-1.70
2017,01,14,02,40,-1.80
2017,01,14,02,41,-1.80
2017,01,14,02,42,-1.80
2017,01,14,02,43,-1.80
2017,01,14,02,44,-1.90
2017,01,14,02,45,-1.90
2017,01,14,02,46,-1.90
2017,01,14,02,47,-1.90
2017,01,14,02,48,-1.90
2017,01,14,02,49,-1.90
2017,01,14,02,50,-1.90
2017,01,14,02,51,-1.90
2017,01,14,02,52,-1.90
2017,01,14,02,53,-1.90
2017,01,14,02,54,-1.90
2017,01,14,02,55,-1.90
2017,01,14,02,56,-1.80
2017,01,14,02,57,-1.80
2017,01,14,02,58,-1.80
2017,01,14,02,59,-1.70
2017,01,14,03,00,-1.70
2017,01,14,03,01,-1.70
2017,01,14,03,02,-1.70
2017,01,14,03,03,-1.70
2017,01,14,03,04,-1.70
2017,01,14,03,05,-1.70
2017,01,14,03,06,-1.70
2017,01,14,03,07,-1.60
2017,01,14,03,08,-1.40
2017,01,14,03,09,-1.40
2017,01,14,03,10,-1.30
2017,01,14,03,11,-1.40
2017,01,14,03,12,-1.40
2017,01,14,03,13,-1.30
2017,01,14,03,14,-1.30
2017,01,14,03,15,-1.30
2017,01,14,03,16,-1.30
2017,01,14,03,17,-1.40
2017,01,14,03,18,-1.40
2017,01,14,03,19,-1.40
2017,01,14,03,20,-1.40
2017,01,14,03,21,-1.40
2017,01,14,03,22,-1.40
2017,01,14,03,23,-1.50
2017,01,14,03,24,-1.50
2017,01,14,03,25,-1.60
2017,01,14,03,26,-1.60
2017,01,14,03,27,-1.60
2017,01,14,03,28,-1.60
2017,01,14,03,29,-1.70
2017,01,14,03,30,-1.70
2017,01,14,03,31,-1.70
2017,01,14,03,32,-1.70
2017,01,14,03,33,-1.70
2017,01,14,03,34,-1.70
2017,01,14,03,35,-1.70
2017,01,14,03,36,-1.70
2017,01,14,03,37,-1.70
2017,01,14,03,38,-1.70
2017,01,14,03,39,-1.70
2017,01,14,03,40,-1.70
2017,01,14,03,41,-1.70
2017,01,14,03,42,-1.70
2017,01,14,03,43,-1.70
2017,01,14,03,44,-1.70
2017,01,14,03,45,-1.70
2017,01,14,03,46,-1.70
2017,01,14,03,47,-1.70
2017,01,14,03,48,-1.70
2017,01,14,03,49,-1.70
2017,01,14,03,50,-1.70
2017,01,14,03,51,-1.80
2017,01,14,03,52,-1.80
2017,01,14,03,53,-1.80
2017,01,14,03,54,-1.80
2017,01,14,03,55,-1.80
2017,01,14,03,56,-1.80
2017,01,14,03,57,-1.80
2017,01,14,03,58,-1.80
2017,01,14,03,59,-1.80
2017,01,14,04,00,-1.80
2017,01,14,04,01,-1.80
2017,01,14,04,02,-1.90
2017,01,14,04,03,-1.80
2017,01,14,04,04,-1.80
2017,01,14,04,05,-1.80
2017,01,14,04,06,-1.80
2017,01,14,04,07,-1.80
2017,01,14,04,08,-1.80
2017,01,14,04,09,-1.80
2017,01,14,04,10,-1.80
2017,01,14,04,11,-1.80
2017,01,14,04,12,-1.80
2017,01,14,04,13,-1.80
2017,01,14,04,14,-1.90
2017,01,14,04,15,-1.90
2017,01,14,04,16,-1.90
2017,01,14,04,17,-1.90
2017,01,14,04,18,-1.90
2017,01,14,04,19,-1.90
2017,01,14,04,20,-1.90
2017,01,14,04,21,-1.90
2017,01,14,04,22,-1.90
2017,01,14,04,23,-1.90
2017,01,14,04,24,-1.90
2017,01,14,04,25,-1.90
2017,01,14,04,26,-1.90
2017,01,14,04,27,-1.90
2017,01,14,04,28,-1.90
2017,01,14,04,29,-1.90
2017,01,14,04,30,-1.90
2017,01,14,04,31,-2.00
2017,01,14,04,32,-2.00
2017,01,14,04,33,-2.00
2017,01,14,04,34,-2.00
2017,01,14,04,35,-2.00
2017,01,14,04,36,-2.00
2017,01,14,04,37,-1.90
2017,01,14,04,38,-1.90
2017,01,14,04,39,-1.90
2017,01,14,04,40,-1.90
2017,01,14,04,41,-1.90
2017,01,14,04,42,-1.90
2017,01,14,04,43,-1.90
2017,01,14,04,44,-1.90
2017,01,14,04,45,-1.90
2017,01,14,04,46,-1.90
2017,01,14,04,47,-1.90
2017,01,14,04,48,-1.90
2017,01,14,04,49,-1.90
2017,01,14,08,29,-2.30
2017,01,14,08,30,-2.30
2017,01,14,08,31,-2.30
2017,01,14,08,32,-2.30
2017,01,14,08,33,-2.30
2017,01,14,08,34,-2.30
2017,01,14,08,35,-2.30
2017,01,14,08,36,-2.30
2017,01,14,08,37,-2.20
2017,01,14,08,38,-2.20
2017,01,14,08,39,-2.20
2017,01,14,08,40,-2.20
2017,01,14,08,41,-2.20
2017,01,14,08,42,-2.20
2017,01,14,08,43,-2.20
2017,01,14,08,44,-2.20
2017,01,14,08,45,-2.20
2017,01,14,08,46,-2.20
2017,01,14,08,47,-2.20
2017,01,14,08,48,-2.20
2017,01,14,08,49,-2.20
2017,01,14,08,50,-2.20
2017,01,14,08,51,-2.20
2017,01,14,08,52,-2.20
2017,01,14,08,53,-2.20
2017,01,14,08,54,-2.20
2017,01,14,08,55,-2.20
2017,01,14,08,56,-2.20
2017,01,14,08,57,-2.30
2017,01,14,08,58,-2.30
2017,01,14,08,59,-2.20
2017,01,14,09,00,-2.20
2017,01,14,09,01,-2.20
2017,01,14,09,02,-2.20
2017,01,14,09,03,-2.20
2017,01,14,09,04,-2.20
2017,01,14,09,05,-2.20
2017,01,14,09,06,-2.20
2017,01,14,09,07,-2.20
2017,01,14,09,08,-2.20
2017,01,14,09,09,-2.10
2017,01,14,09,10,-2.10
2017,01,14,09,11,-2.10
2017,01,14,09,12,-2.10
2017,01,14,09,13,-2.10
2017,01,14,09,14,-2.10
2017,01,14,09,15,-2.10
2017,01,14,09,16,-2.10
2017,01,14,09,17,-2.10
2017,01,14,09,18,-2.10
2017,01,14,09,19,-2.10
2017,01,14,09,20,-2.10
2017,01,14,09,21,-2.00
2017,01,14,09,22,-1.90
2017,01,14,09,23,-1.90
2017,01,14,09,24,-1.90
2017,01,14,09,25,-1.90
2017,01,14,09,26,-2.00
2017,01,14,09,27,-2.00
2017,01,14,09,28,-2.00
2017,01,14,09,29,-2.00
2017,01,14,09,30,-2.00
2017,01,14,09,31,-2.00
2017,01,14,09,32,-2.00
2017,01,14,09,33,-2.00
2017,01,14,09,34,-2.00
2017,01,14,09,35,-2.00
2017,01,14,09,36,-2.00
2017,01,14,09,37,-2.00
2017,01,14,09,38,-2.00
2017,01,14,09,39,-2.00
2017,01,14,09,40,-2.00
2017,01,14,09,41,-2.00
2017,01,14,09,42,-1.90
2017,01,14,09,43,-1.90
2017,01,14,09,44,-1.90
2017,01,14,09,45,-1.90
2017,01,14,09,46,-1.90
2017,01,14,09,47,-1.80
2017,01,14,09,48,-1.80
2017,01,14,09,49,-1.70
2017,01,14,09,50,-1.70
2017,01,14,09,51,-1.70
2017,01,14,09,52,-1.70
2017,01,14,09,53,-1.70
2017,01,14,09,54,-1.60
2017,01,14,09,55,-1.60
2017,01,14,09,56,-1.60
2017,01,14,09,57,-1.60
2017,01,14,09,58,-1.60
2017,01,14,09,59,-1.60
2017,01,14,10,00,-1.60
2017,01,14,10,01,-1.60
2017,01,14,10,02,-1.60
2017,01,14,10,03,-1.60
2017,01,14,10,04,-1.60
2017,01,14,10,05,-1.50
2017,01,14,10,06,-1.50
2017,01,14,10,07,-1.50
2017,01,14,10,08,-1.50
2017,01,14,10,09,-1.50
2017,01,14,10,10,-1.50
2017,01,14,10,11,-1.50
2017,01,14,10,12,-1.50
2017,01,14,10,13,-1.50
2017,01,14,10,14,-1.40
2017,01,14,10,15,-1.40
2017,01,14,10,16,-1.40
2017,01,14,10,17,-1.40
2017,01,14,10,18,-1.40
2017,01,14,10,19,-1.40
2017,01,14,10,20,-1.40
2017,01,14,10,21,-1.30
2017,01,14,10,22,-1.30
2017,01,14,10,23,-1.30
2017,01,14,10,24,-1.30
2017,01,14,10,25,-1.30
2017,01,14,10,26,-1.30
2017,01,14,10,27,-1.30
2017,01,14,10,28,-1.30
2017,01,14,10,29,-1.30
2017,01,14,10,30,-1.20
2017,01,14,10,31,-1.20
2017,01,14,10,32,-1.20
2017,01,14,10,33,-1.20
2017,01,14,10,34,-1.20
2017,01,14,10,35,-1.10
2017,01,14,10,36,-1.10
2017,01,14,10,37,-1.00
2017,01,14,10,38,-1.00
2017,01,14,10,39,-0.90
2017,01,14,10,40,-0.90
2017,01,14,10,41,-0.80
2017,01,14,10,42,-0.80
2017,01,14,10,43,-0.70
2017,01,14,10,44,-0.70
2017,01,14,10,45,-0.60
2017,01,14,10,46,-0.50
2017,01,14,10,47,-0.40
2017,01,14,10,48,-0.40
2017,01,14,10,49,-0.20
2017,01,14,10,50,-0.10
2017,01,14,10,51,0.10
2017,01,14,10,52,0.20
2017,01,14,10,53,0.40
2017,01,14,10,54,0.60
2017,01,14,10,55,0.80
2017,01,14,10,56,1.10
2017,01,14,10,57,1.30
2017,01,14,10,58,1.50
2017,01,14,10,59,1.70
2017,01,14,11,00,1.90
2017,01,14,11,01,2.00
2017,01,14,11,02,2.00
2017,01,14,11,03,2.10
2017,01,14,11,04,2.10
2017,01,14,11,05,2.10
2017,01,14,11,06,2.20
2017,01,14,11,07,2.20
2017,01,14,11,08,2.30
2017,01,14,11,09,2.40
2017,01,14,11,10,2.60
2017,01,14,11,11,2.70
2017,01,14,11,12,2.80
2017,01,14,11,13,2.80
2017,01,14,11,14,2.80
2017,01,14,11,15,2.90
2017,01,14,11,16,2.90
2017,01,14,11,17,3.00
2017,01,14,11,18,3.00
2017,01,14,11,19,3.00
2017,01,14,11,20,3.10
2017,01,14,11,21,3.20
2017,01,14,11,22,3.30
2017,01,14,11,23,3.30
2017,01,14,11,24,3.30
2017,01,14,11,25,3.20
2017,01,14,11,26,3.20
2017,01,14,11,27,3.30
2017,01,14,11,28,3.30
2017,01,14,11,29,3.30
2017,01,14,11,30,3.20
2017,01,14,11,31,3.20
2017,01,14,11,32,3.20
2017,01,14,11,33,3.20
2017,01,14,11,34,3.20
2017,01,14,11,35,3.20
2017,01,14,11,36,3.20
2017,01,14,11,37,3.30
2017,01,14,11,38,3.30
2017,01,14,11,39,3.30
2017,01,14,11,40,3.40
2017,01,14,11,41,3.40
2017,01,14,11,42,3.50
2017,01,14,11,43,3.70
2017,01,14,11,44,3.80
2017,01,14,11,45,3.90
2017,01,14,11,46,4.00
2017,01,14,11,47,3.90
2017,01,14,11,48,3.80
2017,01,14,11,49,3.80
2017,01,14,11,50,3.80
2017,01,14,11,51,3.80
2017,01,14,11,52,3.80
2017,01,14,11,53,3.80
2017,01,14,11,54,3.90
2017,01,14,11,55,3.90
2017,01,14,11,56,4.00
2017,01,14,11,57,4.10
2017,01,14,11,58,4.10
2017,01,14,11,59,4.20
2017,01,14,12,00,4.20
2017,01,14,12,01,4.30
2017,01,14,12,02,4.30
2017,01,14,12,03,4.30
2017,01,14,12,04,4.40
2017,01,14,12,05,4.40
2017,01,14,12,06,4.40
2017,01,14,12,07,4.40
2017,01,14,12,08,4.30
2017,01,14,12,09,4.30
2017,01,14,12,10,4.20
2017,01,14,12,11,4.20
2017,01,14,12,12,4.30
2017,01,14,12,13,4.20
2017,01,14,12,14,4.20
2017,01,14,12,15,4.20
2017,01,14,12,16,4.30
2017,01,14,12,17,4.40
2017,01,14,12,18,4.40
2017,01,14,12,19,4.50
2017,01,14,12,20,4.50
2017,01,14,12,21,4.60
2017,01,14,12,22,4.60
2017,01,14,12,23,4.50
2017,01,14,12,24,4.50
2017,01,14,12,25,4.50
2017,01,14,12,26,4.40
2017,01,14,12,27,4.40
2017,01,14,12,28,4.30
2017,01,14,12,29,4.20
2017,01,14,12,30,4.20
2017,01,14,12,31,4.10
2017,01,14,12,32,4.00
2017,01,14,12,33,3.90
2017,01,14,12,34,3.80
2017,01,14,12,35,3.80
2017,01,14,12,36,3.70
2017,01,14,12,37,3.70
2017,01,14,12,38,3.60
2017,01,14,12,39,3.50
2017,01,14,12,40,3.50
2017,01,14,12,41,3.50
2017,01,14,12,42,3.60
2017,01,14,12,43,3.70
2017,01,14,12,44,3.80
2017,01,14,12,45,3.80
2017,01,14,12,46,3.90
2017,01,14,12,47,3.90
2017,01,14,12,48,3.90
2017,01,14,12,49,4.00
2017,01,14,12,50,4.00
2017,01,14,12,51,4.10
2017,01,14,12,52,4.20
2017,01,14,12,53,4.30
2017,01,14,12,54,4.30
2017,01,14,12,55,4.30
2017,01,14,12,56,4.30
2017,01,14,12,57,4.30
2017,01,14,12,58,4.30
2017,01,14,12,59,4.40
2017,01,14,13,00,4.40
2017,01,14,13,01,4.40
2017,01,14,13,02,4.40
2017,01,14,13,03,4.40
2017,01,14,13,04,4.40
2017,01,14,13,05,4.40
2017,01,14,13,06,4.40
2017,01,14,13,07,4.40
2017,01,14,13,08,4.40
2017,01,14,13,09,4.30
2017,01,14,13,10,4.30
2017,01,14,13,11,4.20
2017,01,14,13,12,4.20
2017,01,14,13,13,4.30
2017,01,14,13,14,4.30
2017,01,14,13,15,4.40
2017,01,14,13,16,4.40
2017,01,14,13,17,4.40
2017,01,14,13,18,4.30
2017,01,14,13,19,4.30
2017,01,14,13,20,4.30
2017,01,14,13,21,4.30
2017,01,14,13,22,4.30
2017,01,14,13,23,4.30
2017,01,14,13,24,4.30
2017,01,14,13,25,4.30
2017,01,14,13,26,4.30
2017,01,14,13,27,4.30
2017,01,14,13,28,4.30
2017,01,14,13,29,4.30
2017,01,14,13,30,4.40
2017,01,14,13,31,4.40
2017,01,14,13,32,4.50
2017,01,14,13,33,4.50
2017,01,14,13,34,4.60
2017,01,14,13,35,4.60
2017,01,14,13,36,4.60
2017,01,14,13,37,4.50
2017,01,14,13,38,4.50
2017,01,14,13,39,4.40
2017,01,14,13,40,4.40
2017,01,14,13,41,4.30
2017,01,14,13,42,4.20
2017,01,14,13,43,4.20
2017,01,14,13,44,4.10
2017,01,14,13,45,4.10
2017,01,14,13,46,4.10
2017,01,14,13,47,4.10
2017,01,14,13,48,4.10
2017,01,14,13,49,4.10
2017,01,14,13,50,4.10
2017,01,14,13,51,4.00
2017,01,14,13,52,4.00
2017,01,14,13,53,4.00
2017,01,14,13,54,4.00
2017,01,14,13,55,4.00
2017,01,14,13,56,4.00
2017,01,14,13,57,4.10
2017,01,14,13,58,4.10
2017,01,14,13,59,4.10
2017,01,14,14,00,4.10
2017,01,14,14,01,4.20
2017,01,14,14,02,4.30
2017,01,14,14,03,4.40
2017,01,14,14,04,4.50
2017,01,14,14,05,4.50
2017,01,14,14,06,4.60
2017,01,14,14,07,4.70
2017,01,14,14,08,4.70
2017,01,14,14,09,4.70
2017,01,14,14,10,4.70
2017,01,14,14,11,4.70
2017,01,14,14,12,4.80
2017,01,14,14,13,4.80
2017,01,14,14,14,4.80
2017,01,14,14,15,4.70
2017,01,14,14,16,4.70
2017,01,14,14,17,4.70
2017,01,14,14,18,4.70
2017,01,14,14,19,4.60
2017,01,14,14,20,4.60
2017,01,14,14,21,4.60
2017,01,14,14,22,4.60
2017,01,14,14,23,4.60
2017,01,14,14,24,4.60
2017,01,14,14,25,4.60
2017,01,14,14,26,4.60
2017,01,14,14,27,4.60
2017,01,14,14,28,4.50
2017,01,14,14,29,4.40
2017,01,14,14,30,4.40
2017,01,14,14,31,4.30
2017,01,14,14,32,4.30
2017,01,14,14,33,4.20
2017,01,14,14,34,4.10
2017,01,14,14,35,4.10
2017,01,14,14,36,4.00
2017,01,14,14,37,3.90
2017,01,14,14,38,3.90
2017,01,14,14,39,3.80
2017,01,14,14,40,3.80
2017,01,14,14,41,3.80
2017,01,14,14,42,3.80
2017,01,14,14,43,3.80
2017,01,14,14,44,3.90
2017,01,14,14,45,3.90
2017,01,14,14,46,3.90
2017,01,14,14,47,3.90
2017,01,14,14,48,3.90
2017,01,14,14,49,3.90
2017,01,14,14,50,3.90
2017,01,14,14,51,3.80
2017,01,14,14,52,3.80
2017,01,14,14,53,3.80
2017,01,14,14,54,3.70
2017,01,14,14,55,3.70
2017,01,14,14,56,3.70
2017,01,14,14,57,3.60
2017,01,14,14,58,3.60
2017,01,14,14,59,3.60
2017,01,14,15,00,3.60
2017,01,14,15,01,3.60
2017,01,14,15,02,3.70
2017,01,14,15,03,3.70
2017,01,14,15,04,3.80
2017,01,14,15,05,3.90
2017,01,14,15,06,4.00
2017,01,14,15,07,4.10
2017,01,14,15,08,4.10
2017,01,14,15,09,4.20
2017,01,14,15,10,4.20
2017,01,14,15,11,4.30
2017,01,14,15,12,4.20
2017,01,14,15,13,4.20
2017,01,14,15,14,4.20
2017,01,14,15,15,4.30
2017,01,14,15,16,4.30
2017,01,14,15,17,4.30
2017,01,14,15,18,4.30
2017,01,14,15,19,4.30
2017,01,14,15,20,4.30
2017,01,14,15,21,4.30
2017,01,14,15,22,4.20
2017,01,14,15,23,4.20
2017,01,14,15,24,4.20
2017,01,14,15,25,4.10
2017,01,14,15,26,4.10
2017,01,14,15,27,4.10
2017,01,14,15,28,4.00
2017,01,14,15,29,4.00
2017,01,14,15,30,4.00
2017,01,14,15,31,4.00
2017,01,14,15,32,4.00
2017,01,14,15,33,4.00
2017,01,14,15,34,4.00
2017,01,14,15,35,4.00
2017,01,14,15,36,4.00
2017,01,14,15,37,3.90
2017,01,14,15,38,3.90
2017,01,14,15,39,3.90
2017,01,14,15,40,4.00
2017,01,14,15,41,4.00
2017,01,14,15,42,4.00
2017,01,14,15,43,4.00
2017,01,14,15,44,4.00
2017,01,14,15,45,3.90
2017,01,14,15,46,3.90
2017,01,14,15,47,3.90
2017,01,14,15,48,3.90
2017,01,14,15,49,3.90
2017,01,14,15,50,3.90
2017,01,14,15,51,3.90
2017,01,14,15,52,3.90
2017,01,14,15,53,3.90
2017,01,14,15,54,3.90
2017,01,14,15,55,3.90
2017,01,14,15,56,3.90
2017,01,14,15,57,3.90
2017,01,14,15,58,3.80
2017,01,14,15,59,3.80
2017,01,14,16,00,3.70
2017,01,14,16,01,3.70
2017,01,14,16,02,3.70
2017,01,14,16,03,3.60
2017,01,14,16,04,3.50
2017,01,14,16,05,3.50
2017,01,14,16,06,3.40
2017,01,14,16,07,3.40
2017,01,14,16,08,3.30
2017,01,14,16,09,3.30
2017,01,14,16,10,3.20
2017,01,14,16,11,3.10
2017,01,14,16,12,3.00
2017,01,14,16,13,3.00
2017,01,14,16,14,2.90
2017,01,14,16,15,2.90
2017,01,14,16,16,2.80
2017,01,14,16,17,2.80
2017,01,14,16,18,2.70
2017,01,14,16,19,2.60
2017,01,14,16,20,2.60
2017,01,14,16,21,2.50
2017,01,14,16,22,2.40
2017,01,14,16,23,2.40
2017,01,14,16,24,2.40
2017,01,14,16,25,2.40
2017,01,14,16,26,2.30
2017,01,14,16,27,2.30
2017,01,14,16,28,2.20
2017,01,14,16,29,2.20
2017,01,14,16,30,2.20
2017,01,14,16,31,2.20
2017,01,14,16,32,2.20
2017,01,14,16,33,2.10
2017,01,14,16,34,2.10
2017,01,14,16,35,2.10
2017,01,14,16,36,2.10
2017,01,14,16,37,2.10
2017,01,14,16,38,2.00
2017,01,14,16,39,2.00
2017,01,14,16,40,1.90
2017,01,14,16,41,1.80
2017,01,14,16,42,1.80
2017,01,14,16,43,1.80
2017,01,14,16,44,1.70
2017,01,14,16,45,1.70
2017,01,14,16,46,1.60
2017,01,14,16,47,1.60
2017,01,14,16,48,1.50
2017,01,14,16,49,1.50
2017,01,14,16,50,1.40
2017,01,14,16,51,1.40
2017,01,14,16,52,1.40
2017,01,14,16,53,1.30
2017,01,14,16,54,1.30
2017,01,14,16,55,1.30
2017,01,14,16,56,1.30
2017,01,14,16,57,1.30
2017,01,14,16,58,1.20
2017,01,14,16,59,1.20
2017,01,14,17,00,1.10
2017,01,14,17,01,1.10
2017,01,14,17,02,1.10
2017,01,14,17,03,1.00
2017,01,14,17,04,1.00
2017,01,14,17,05,1.00
2017,01,14,17,06,1.00
2017,01,14,17,07,1.00
2017,01,14,17,08,1.00
2017,01,14,17,09,1.10
2017,01,14,17,10,1.10
2017,01,14,17,11,1.20
2017,01,14,17,12,1.20
2017,01,14,17,13,1.10
2017,01,14,17,14,1.10
2017,01,14,17,15,1.00
2017,01,14,17,16,1.00
2017,01,14,17,17,0.90
2017,01,14,17,18,0.90
2017,01,14,17,19,0.80
2017,01,14,17,20,0.80
2017,01,14,17,21,0.80
2017,01,14,17,22,0.80
2017,01,14,17,23,0.70
2017,01,14,17,24,0.70
2017,01,14,17,25,0.70
2017,01,14,17,26,0.60
2017,01,14,17,27,0.60
2017,01,14,17,28,0.60
2017,01,14,17,29,0.60
2017,01,14,17,30,0.50
2017,01,14,17,31,0.50
2017,01,14,17,32,0.50
2017,01,14,17,33,0.40
2017,01,14,17,34,0.40
2017,01,14,17,35,0.40
2017,01,14,17,36,0.40
2017,01,14,17,37,0.40
2017,01,14,17,38,0.40
2017,01,14,17,39,0.40
2017,01,14,17,40,0.30
2017,01,14,17,41,0.30
2017,01,14,17,42,0.30
2017,01,14,17,43,0.30
2017,01,14,17,44,0.30
2017,01,14,17,45,0.30
2017,01,14,17,46,0.30
2017,01,14,17,47,0.30
2017,01,14,17,48,0.20
2017,01,14,17,49,0.20
2017,01,14,17,50,0.20
2017,01,14,17,51,0.20
2017,01,14,17,52,0.20
2017,01,14,17,53,0.10
2017,01,14,17,54,0.10
2017,01,14,17,55,0.10
2017,01,14,17,56,0.10
2017,01,14,17,57,0.10
2017,01,14,17,58,0.10
2017,01,14,17,59,0.10
2017,01,14,18,00,0.10
2017,01,14,18,01,0.10
2017,01,14,18,02,0.00
2017,01,14,18,03,0.00
2017,01,14,18,04,0.00
2017,01,14,18,05,-0.10
2017,01,14,18,06,-0.10
2017,01,14,18,07,-0.10
2017,01,14,18,08,-0.10
2017,01,14,18,09,-0.20
2017,01,14,18,10,-0.20
2017,01,14,18,11,-0.20
2017,01,14,18,12,-0.20
2017,01,14,18,13,-0.20
2017,01,14,18,14,-0.20
2017,01,14,18,15,-0.20
2017,01,14,18,16,-0.20
2017,01,14,18,17,-0.30
2017,01,14,18,18,-0.30
2017,01,14,18,19,-0.30
2017,01,14,18,20,-0.30
2017,01,14,18,21,-0.30
2017,01,14,18,22,-0.30
2017,01,14,18,23,-0.30
2017,01,14,18,24,-0.30
2017,01,14,18,25,-0.30
2017,01,14,18,26,-0.30
2017,01,14,18,27,-0.30
2017,01,14,18,28,-0.30
2017,01,14,18,29,-0.30
2017,01,14,18,30,-0.30
2017,01,14,18,31,-0.30
2017,01,14,18,32,-0.30
2017,01,14,18,33,-0.30
2017,01,14,18,34,-0.30
2017,01,14,18,35,-0.30
2017,01,14,18,36,-0.30
2017,01,14,18,37,-0.30
2017,01,14,18,38,-0.30
2017,01,14,18,39,-0.30
2017,01,14,18,40,-0.30
2017,01,14,18,41,-0.30
2017,01,14,18,42,-0.30
2017,01,14,18,43,-0.30
2017,01,14,18,44,-0.30
2017,01,14,18,45,-0.30
2017,01,14,18,46,-0.30
2017,01,14,18,47,-0.20
2017,01,14,18,48,-0.20
2017,01,14,18,49,-0.20
2017,01,14,18,50,-0.20
2017,01,14,18,51,-0.20
2017,01,14,18,52,-0.20
2017,01,14,18,53,-0.20
2017,01,14,18,54,-0.20
2017,01,14,18,55,-0.20
2017,01,14,18,56,-0.30
2017,01,14,18,57,-0.30
2017,01,14,18,58,-0.30
2017,01,14,18,59,-0.30
2017,01,14,19,00,-0.30
2017,01,14,19,01,-0.30
2017,01,14,19,02,-0.30
2017,01,14,19,03,-0.30
2017,01,14,19,04,-0.30
2017,01,14,19,05,-0.30
2017,01,14,19,06,-0.30
2017,01,14,19,07,-0.30
2017,01,14,19,08,-0.20
2017,01,14,19,09,-0.20
2017,01,14,19,10,-0.20
2017,01,14,19,11,-0.20
2017,01,14,19,12,-0.30
2017,01,14,19,13,-0.30
2017,01,14,19,14,-0.30
2017,01,14,19,15,-0.30
2017,01,14,19,16,-0.30
2017,01,14,19,17,-0.30
2017,01,14,19,18,-0.30
2017,01,14,19,19,-0.30
2017,01,14,19,20,-0.30
2017,01,14,19,21,-0.30
2017,01,14,19,22,-0.30
2017,01,14,19,23,-0.30
2017,01,14,19,24,-0.30
2017,01,14,19,25,-0.30
2017,01,14,19,26,-0.30
2017,01,14,19,27,-0.30
2017,01,14,19,28,-0.30
2017,01,14,19,29,-0.30
2017,01,14,19,30,-0.30
2017,01,14,19,31,-0.30
2017,01,14,19,32,-0.40
2017,01,14,19,33,-0.40
2017,01,14,19,34,-0.40
2017,01,14,19,35,-0.40
2017,01,14,19,36,-0.40
2017,01,14,19,37,-0.30
2017,01,14,19,38,-0.40
2017,01,14,19,39,-0.40
2017,01,14,19,40,-0.30
2017,01,14,19,41,-0.30
2017,01,14,19,42,-0.30
2017,01,14,19,43,-0.30
2017,01,14,19,44,-0.30
2017,01,14,19,45,-0.20
2017,01,14,19,46,-0.20
2017,01,14,19,47,-0.10
2017,01,14,19,48,-0.10
2017,01,14,19,49,-0.10
2017,01,14,19,50,0.00
2017,01,14,19,51,0.00
2017,01,14,19,52,0.10
2017,01,14,19,53,0.10
2017,01,14,19,54,0.10
2017,01,14,19,55,0.10
2017,01,14,19,56,0.10
2017,01,14,19,57,0.10
2017,01,14,19,58,0.10
2017,01,14,19,59,0.10
2017,01,14,20,00,0.20
2017,01,14,20,01,0.20
2017,01,14,20,02,0.30
2017,01,14,20,03,0.30
2017,01,14,20,04,0.40
2017,01,14,20,05,0.40
2017,01,14,20,06,0.40
2017,01,14,20,07,0.40
2017,01,14,20,08,0.40
2017,01,14,20,09,0.30
2017,01,14,20,10,0.30
2017,01,14,20,11,0.30
2017,01,14,20,12,0.20
2017,01,14,20,13,0.20
2017,01,14,20,14,0.20
2017,01,14,20,15,0.20
2017,01,14,20,16,0.30
2017,01,14,20,17,0.20
2017,01,14,20,18,0.20
2017,01,14,20,19,0.20
2017,01,14,20,20,0.20
2017,01,14,20,21,0.20
2017,01,14,20,22,0.20
2017,01,14,20,23,0.20
2017,01,14,20,24,0.20
2017,01,14,20,25,0.20
2017,01,14,20,26,0.20
2017,01,14,20,27,0.20
2017,01,14,20,28,0.10
2017,01,14,20,29,0.10
2017,01,14,20,30,0.10
2017,01,14,20,31,0.10
2017,01,14,20,32,0.00
2017,01,14,20,33,0.00
2017,01,14,20,34,0.00
2017,01,14,20,35,-0.10
2017,01,14,20,36,-0.10
2017,01,14,20,37,-0.10
2017,01,14,20,38,-0.10
2017,01,14,20,39,-0.10
2017,01,14,20,40,-0.10
2017,01,14,20,41,-0.20
2017,01,14,20,42,-0.20
2017,01,14,20,43,-0.30
2017,01,14,20,44,-0.30
2017,01,14,20,45,-0.40
2017,01,14,20,46,-0.50
2017,01,14,20,47,-0.50
2017,01,14,20,48,-0.60
2017,01,14,20,49,-0.70
2017,01,14,20,50,-0.70
2017,01,14,20,51,-0.80
2017,01,14,20,52,-0.80
2017,01,14,20,53,-0.80
2017,01,14,20,54,-0.90
2017,01,14,20,55,-0.90
2017,01,14,20,56,-0.90
2017,01,14,20,57,-1.00
2017,01,14,20,58,-1.00
2017,01,14,20,59,-1.10
2017,01,14,21,00,-1.10
2017,01,14,21,01,-1.10
2017,01,14,21,02,-1.20
2017,01,14,21,03,-1.20
2017,01,14,21,04,-1.20
2017,01,14,21,05,-1.30
2017,01,14,21,06,-1.30
2017,01,14,21,07,-1.30
2017,01,14,21,08,-1.30
2017,01,14,21,09,-1.30
2017,01,14,21,10,-1.30
2017,01,14,21,11,-1.30
2017,01,14,21,12,-1.30
2017,01,14,21,13,-1.40
2017,01,14,21,14,-1.40
2017,01,14,21,15,-1.40
2017,01,14,21,16,-1.40
2017,01,14,21,17,-1.40
2017,01,14,21,18,-1.40
2017,01,14,21,19,-1.40